Torna al catalogo

STARLINK-2459

AttivoComunicazioniVLEO
NORAD 48119·PAYLOAD·🇺🇸 United States

Lanciato Apr 7, 2021 da Cape Canaveral Space Force Station

Loading…

Prossimi Passaggi (prossime 24 ore)

TLE

AggiornatoSource: CelesTrak SupGP

Epoca: Sep 14, 2026, 20:34 UTC

1 48119C 21027AD  26257.85743056 -.00020158  00000+0 -64827-3 0  2579
2 48119  53.1602 352.0747 0000992  63.5912 207.8060 15.31709447    11

Traccia STARLINK-2459 in tempo reale con AllMySat

Download on the App Store